GS-1

Last updated on Mon Sep 21 2026 00:03:02 GMT+0000 (Coordinated Universal Time)

1 56372U 23060C 26262.86967512 -.00000192 00000+0 00000+0 0 9997 2 56372 2.9629 78.6247 0003053 262.9551 56.2431 1.00249628 8481
UTC large
Height (km)
Speed (km/s)
/
Latitude / Longitude
Inclination (degrees)
Orbital Period (minutes)
Azimuth
Elevation
Range (km)
Doppler Factor

Next 0 passes for location: London (51.5072 / 0.1276)

No passes found over London.
GS-1